Year,Month,Day,Hour,Minute,Value (Times are PST for temperature in C)
2015,03,19,00,00,9.00
2015,03,19,00,01,9.00
2015,03,19,00,02,9.00
2015,03,19,00,03,8.90
2015,03,19,00,04,8.90
2015,03,19,00,05,8.90
2015,03,19,00,06,8.90
2015,03,19,00,07,8.90
2015,03,19,00,08,8.90
2015,03,19,00,09,8.90
2015,03,19,00,10,8.90
2015,03,19,00,11,8.90
2015,03,19,00,12,8.90
2015,03,19,00,13,8.90
2015,03,19,00,14,8.90
2015,03,19,00,15,8.90
2015,03,19,00,16,8.90
2015,03,19,00,17,8.90
2015,03,19,00,19,8.90
2015,03,19,00,20,8.90
2015,03,19,00,21,8.80
2015,03,19,00,22,8.80
2015,03,19,00,23,8.80
2015,03,19,00,24,8.80
2015,03,19,00,25,8.80
2015,03,19,00,26,8.80
2015,03,19,00,27,8.80
2015,03,19,00,28,8.80
2015,03,19,00,29,8.80
2015,03,19,00,30,8.80
2015,03,19,00,31,8.80
2015,03,19,00,32,8.80
2015,03,19,00,33,8.80
2015,03,19,00,34,8.70
2015,03,19,00,35,8.70
2015,03,19,00,36,8.70
2015,03,19,00,37,8.70
2015,03,19,00,38,8.70
2015,03,19,00,39,8.70
2015,03,19,00,40,8.70
2015,03,19,00,41,8.70
2015,03,19,00,42,8.70
2015,03,19,00,43,8.70
2015,03,19,00,44,8.70
2015,03,19,00,45,8.70
2015,03,19,00,46,8.70
2015,03,19,00,47,8.70
2015,03,19,00,48,8.70
2015,03,19,00,49,8.70
2015,03,19,00,50,8.70
2015,03,19,00,51,8.70
2015,03,19,00,52,8.70
2015,03,19,00,53,8.70
2015,03,19,00,54,8.60
2015,03,19,00,55,8.60
2015,03,19,00,56,8.60
2015,03,19,00,57,8.70
2015,03,19,00,58,8.60
2015,03,19,01,00,8.60
2015,03,19,01,02,8.60
2015,03,19,01,03,8.60
2015,03,19,01,04,8.60
2015,03,19,01,05,8.60
2015,03,19,01,06,8.60
2015,03,19,01,07,8.60
2015,03,19,01,08,8.60
2015,03,19,01,09,8.60
2015,03,19,01,10,8.60
2015,03,19,01,11,8.60
2015,03,19,01,12,8.60
2015,03,19,01,13,8.60
2015,03,19,01,14,8.60
2015,03,19,01,15,8.60
2015,03,19,01,16,8.60
2015,03,19,01,17,8.60
2015,03,19,01,18,8.60
2015,03,19,01,19,8.50
2015,03,19,01,20,8.50
2015,03,19,01,21,8.50
2015,03,19,01,22,8.50
2015,03,19,01,23,8.50
2015,03,19,01,24,8.50
2015,03,19,01,25,8.50
2015,03,19,01,26,8.40
2015,03,19,01,27,8.40
2015,03,19,01,28,8.40
2015,03,19,01,29,8.40
2015,03,19,01,30,8.40
2015,03,19,01,31,8.40
2015,03,19,01,32,8.40
2015,03,19,01,33,8.40
2015,03,19,01,34,8.40
2015,03,19,01,35,8.40
2015,03,19,01,36,8.40
2015,03,19,01,37,8.40
2015,03,19,01,38,8.40
2015,03,19,01,39,8.40
2015,03,19,01,40,8.40
2015,03,19,01,41,8.40
2015,03,19,01,42,8.40
2015,03,19,01,43,8.40
2015,03,19,01,44,8.40
2015,03,19,01,45,8.30
2015,03,19,01,46,8.30
2015,03,19,01,47,8.30
2015,03,19,01,49,8.30
2015,03,19,01,50,8.30
2015,03,19,01,51,8.30
2015,03,19,01,52,8.30
2015,03,19,01,53,8.30
2015,03,19,01,54,8.30
2015,03,19,01,55,8.30
2015,03,19,01,56,8.30
2015,03,19,01,57,8.30
2015,03,19,01,58,8.30
2015,03,19,01,59,8.30
2015,03,19,02,00,8.30
2015,03,19,02,01,8.30
2015,03,19,02,02,8.30
2015,03,19,02,03,8.30
2015,03,19,02,04,8.30
2015,03,19,02,05,8.30
2015,03,19,02,06,8.30
2015,03,19,02,07,8.30
2015,03,19,02,08,8.30
2015,03,19,02,09,8.30
2015,03,19,02,10,8.30
2015,03,19,02,11,8.30
2015,03,19,02,12,8.30
2015,03,19,02,13,8.30
2015,03,19,02,14,8.20
2015,03,19,02,15,8.20
2015,03,19,02,16,8.20
2015,03,19,02,17,8.20
2015,03,19,02,18,8.20
2015,03,19,02,19,8.20
2015,03,19,02,20,8.20
2015,03,19,02,22,8.20
2015,03,19,02,23,8.20
2015,03,19,02,24,8.20
2015,03,19,02,25,8.20
2015,03,19,02,26,8.20
2015,03,19,02,27,8.20
2015,03,19,02,28,8.20
2015,03,19,02,29,8.20
2015,03,19,02,30,8.20
2015,03,19,02,31,8.20
2015,03,19,02,32,8.20
2015,03,19,02,33,8.20
2015,03,19,02,34,8.20
2015,03,19,02,35,8.20
2015,03,19,02,36,8.20
2015,03,19,02,37,8.20
2015,03,19,02,38,8.20
2015,03,19,02,39,8.20
2015,03,19,02,40,8.20
2015,03,19,02,41,8.20
2015,03,19,02,42,8.20
2015,03,19,02,43,8.20
2015,03,19,02,44,8.20
2015,03,19,02,45,8.20
2015,03,19,02,46,8.10
2015,03,19,02,47,8.10
2015,03,19,02,48,8.10
2015,03,19,02,49,8.10
2015,03,19,02,50,8.10
2015,03,19,02,51,8.10
2015,03,19,02,52,8.10
2015,03,19,02,53,8.10
2015,03,19,02,54,8.10
2015,03,19,02,55,8.10
2015,03,19,02,56,8.10
2015,03,19,02,57,8.10
2015,03,19,02,59,8.10
2015,03,19,03,00,8.10
2015,03,19,03,01,8.10
2015,03,19,03,02,8.10
2015,03,19,03,03,8.10
2015,03,19,03,04,8.10
2015,03,19,03,05,8.10
2015,03,19,03,06,8.00
2015,03,19,03,07,8.00
2015,03,19,03,08,8.00
2015,03,19,03,09,8.00
2015,03,19,03,10,8.00
2015,03,19,03,11,8.00
2015,03,19,03,12,8.00
2015,03,19,03,13,8.00
2015,03,19,03,14,8.00
2015,03,19,03,15,8.00
2015,03,19,03,16,8.00
2015,03,19,03,17,7.90
2015,03,19,03,18,7.90
2015,03,19,03,19,7.90
2015,03,19,03,20,7.90
2015,03,19,03,21,7.90
2015,03,19,03,22,7.90
2015,03,19,03,23,7.90
2015,03,19,03,24,7.90
2015,03,19,03,25,7.90
2015,03,19,03,26,7.90
2015,03,19,03,27,7.90
2015,03,19,03,28,7.90
2015,03,19,03,29,7.90
2015,03,19,03,30,7.90
2015,03,19,03,31,7.90
2015,03,19,03,32,7.90
2015,03,19,03,33,7.90
2015,03,19,03,34,7.90
2015,03,19,03,35,7.80
2015,03,19,03,36,7.80
2015,03,19,03,37,7.80
2015,03,19,03,38,7.80
2015,03,19,03,39,7.80
2015,03,19,03,40,7.80
2015,03,19,03,41,7.80
2015,03,19,03,42,7.80
2015,03,19,03,43,7.80
2015,03,19,03,44,7.80
2015,03,19,03,45,7.80
2015,03,19,03,46,7.80
2015,03,19,03,47,7.80
2015,03,19,03,48,7.80
2015,03,19,03,49,7.70
2015,03,19,03,50,7.70
2015,03,19,03,51,7.70
2015,03,19,03,52,7.70
2015,03,19,03,53,7.70
2015,03,19,03,54,7.70
2015,03,19,03,55,7.70
2015,03,19,03,56,7.70
2015,03,19,03,57,7.70
2015,03,19,03,58,7.70
2015,03,19,03,59,7.70
2015,03,19,04,00,7.70
2015,03,19,04,01,7.70
2015,03,19,04,02,7.70
2015,03,19,04,03,7.70
2015,03,19,04,04,7.70
2015,03,19,04,05,7.70
2015,03,19,04,06,7.70
2015,03,19,04,07,7.70
2015,03,19,04,08,7.70
2015,03,19,04,09,7.70
2015,03,19,04,10,7.70
2015,03,19,04,11,7.70
2015,03,19,04,12,7.70
2015,03,19,04,13,7.70
2015,03,19,04,14,7.70
2015,03,19,04,15,7.70
2015,03,19,04,16,7.70
2015,03,19,04,17,7.70
2015,03,19,04,18,7.70
2015,03,19,04,19,7.70
2015,03,19,04,20,7.70
2015,03,19,04,21,7.70
2015,03,19,04,22,7.70
2015,03,19,04,23,7.70
2015,03,19,04,24,7.70
2015,03,19,04,25,7.70
2015,03,19,04,26,7.70
2015,03,19,04,27,7.70
2015,03,19,04,29,7.70
2015,03,19,04,30,7.70
2015,03,19,04,31,7.70
2015,03,19,04,32,7.70
2015,03,19,04,33,7.70
2015,03,19,04,34,7.70
2015,03,19,04,35,7.70
2015,03,19,04,36,7.70
2015,03,19,04,37,7.70
2015,03,19,04,38,7.70
2015,03,19,04,40,7.70
2015,03,19,04,41,7.70
2015,03,19,04,42,7.70
2015,03,19,04,43,7.70
2015,03,19,04,44,7.70
2015,03,19,04,45,7.70
2015,03,19,04,46,7.70
2015,03,19,04,47,7.70
2015,03,19,04,48,7.70
2015,03,19,04,49,7.70
2015,03,19,04,50,7.70
2015,03,19,04,51,7.70
2015,03,19,04,52,7.70
2015,03,19,04,53,7.70
2015,03,19,04,54,7.70
2015,03,19,04,55,7.70
2015,03,19,04,56,7.70
2015,03,19,04,57,7.70
2015,03,19,04,58,7.70
2015,03,19,04,59,7.70
2015,03,19,05,00,7.70
2015,03,19,05,01,7.60
2015,03,19,05,02,7.70
2015,03,19,05,03,7.60
2015,03,19,05,04,7.60
2015,03,19,05,06,7.60
2015,03,19,05,07,7.60
2015,03,19,05,08,7.60
2015,03,19,05,09,7.60
2015,03,19,05,10,7.60
2015,03,19,05,11,7.60
2015,03,19,05,12,7.60
2015,03,19,05,13,7.60
2015,03,19,05,14,7.60
2015,03,19,05,15,7.60
2015,03,19,05,16,7.60
2015,03,19,05,17,7.60
2015,03,19,05,18,7.60
2015,03,19,05,19,7.60
2015,03,19,05,20,7.60
2015,03,19,05,21,7.60
2015,03,19,05,22,7.60
2015,03,19,05,23,7.60
2015,03,19,05,24,7.60
2015,03,19,05,26,7.60
2015,03,19,05,27,7.60
2015,03,19,05,28,7.60
2015,03,19,05,29,7.60
2015,03,19,05,30,7.60
2015,03,19,05,31,7.50
2015,03,19,05,32,7.50
2015,03,19,05,33,7.50
2015,03,19,05,34,7.50
2015,03,19,05,35,7.40
2015,03,19,05,36,7.40
2015,03,19,05,37,7.40
2015,03,19,05,38,7.40
2015,03,19,05,39,7.40
2015,03,19,05,40,7.30
2015,03,19,05,41,7.30
2015,03,19,05,42,7.30
2015,03,19,05,43,7.20
2015,03,19,05,44,7.20
2015,03,19,05,45,7.20
2015,03,19,05,46,7.10
2015,03,19,05,47,7.10
2015,03,19,05,48,7.10
2015,03,19,05,49,7.00
2015,03,19,05,50,6.90
2015,03,19,05,51,6.80
2015,03,19,05,52,6.80
2015,03,19,05,53,6.80
2015,03,19,05,54,6.80
2015,03,19,05,55,6.70
2015,03,19,05,57,6.70
2015,03,19,05,58,6.70
2015,03,19,05,59,6.70
2015,03,19,06,00,6.60
2015,03,19,06,01,6.60
2015,03,19,06,02,6.60
2015,03,19,06,03,6.50
2015,03,19,06,04,6.50
2015,03,19,06,05,6.50
2015,03,19,06,06,6.40
2015,03,19,06,07,6.40
2015,03,19,06,08,6.40
2015,03,19,06,09,6.40
2015,03,19,06,10,6.30
2015,03,19,06,11,6.30
2015,03,19,06,12,6.30
2015,03,19,06,13,6.30
2015,03,19,06,14,6.20
2015,03,19,06,15,6.20
2015,03,19,06,16,6.20
2015,03,19,06,17,6.20
2015,03,19,06,18,6.20
2015,03,19,06,19,6.20
2015,03,19,06,20,6.20
2015,03,19,06,21,6.10
2015,03,19,06,22,6.10
2015,03,19,06,23,6.10
2015,03,19,06,24,6.10
2015,03,19,06,25,6.10
2015,03,19,06,26,6.10
2015,03,19,06,27,6.10
2015,03,19,06,28,6.10
2015,03,19,06,29,6.10
2015,03,19,06,30,6.10
2015,03,19,06,31,6.00
2015,03,19,06,32,6.00
2015,03,19,06,33,6.00
2015,03,19,06,34,6.00
2015,03,19,06,35,6.00
2015,03,19,06,36,6.00
2015,03,19,06,37,5.90
2015,03,19,06,38,5.90
2015,03,19,06,39,5.90
2015,03,19,06,40,5.90
2015,03,19,06,41,5.90
2015,03,19,06,42,5.90
2015,03,19,06,43,5.80
2015,03,19,06,44,5.80
2015,03,19,06,45,5.80
2015,03,19,06,46,5.80
2015,03,19,06,47,5.80
2015,03,19,06,48,5.80
2015,03,19,06,49,5.80
2015,03,19,06,50,5.80
2015,03,19,06,51,5.80
2015,03,19,06,52,5.80
2015,03,19,06,53,5.80
2015,03,19,06,54,5.70
2015,03,19,06,55,5.70
2015,03,19,06,56,5.70
2015,03,19,06,57,5.70
2015,03,19,06,58,5.70
2015,03,19,06,59,5.70
2015,03,19,07,00,5.70
2015,03,19,07,01,5.70
2015,03,19,07,02,5.70
2015,03,19,07,03,5.70
2015,03,19,07,04,5.70
2015,03,19,07,05,5.70
2015,03,19,07,06,5.70
2015,03,19,07,07,5.70
2015,03,19,07,08,5.70
2015,03,19,07,09,5.70
2015,03,19,07,10,5.70
2015,03,19,07,11,5.70
2015,03,19,07,12,5.70
2015,03,19,07,13,5.70
2015,03,19,07,14,5.70
2015,03,19,07,15,5.70
2015,03,19,07,16,5.70
2015,03,19,07,17,5.70
2015,03,19,07,18,5.70
2015,03,19,07,19,5.70
2015,03,19,07,20,5.70
2015,03,19,07,21,5.70
2015,03,19,07,22,5.70
2015,03,19,07,23,5.70
2015,03,19,07,24,5.70
2015,03,19,07,25,5.70
2015,03,19,07,26,5.70
2015,03,19,07,27,5.70
2015,03,19,07,28,5.70
2015,03,19,07,29,5.70
2015,03,19,07,30,5.70
2015,03,19,07,31,5.60
2015,03,19,07,32,5.70
2015,03,19,07,33,5.70
2015,03,19,07,34,5.70
2015,03,19,07,35,5.70
2015,03,19,07,36,5.70
2015,03,19,07,37,5.70
2015,03,19,07,38,5.70
2015,03,19,07,39,5.70
2015,03,19,07,40,5.70
2015,03,19,07,41,5.70
2015,03,19,07,42,5.70
2015,03,19,07,43,5.70
2015,03,19,07,44,5.70
2015,03,19,07,45,5.70
2015,03,19,07,46,5.70
2015,03,19,07,47,5.70
2015,03,19,07,48,5.70
2015,03,19,07,49,5.70
2015,03,19,07,50,5.70
2015,03,19,07,51,5.70
2015,03,19,07,52,5.70
2015,03,19,07,53,5.70
2015,03,19,07,54,5.70
2015,03,19,07,55,5.70
2015,03,19,07,56,5.70
2015,03,19,07,57,5.70
2015,03,19,07,58,5.70
2015,03,19,07,59,5.70
2015,03,19,08,00,5.70
2015,03,19,08,01,5.70
2015,03,19,08,02,5.70
2015,03,19,08,03,5.70
2015,03,19,08,04,5.70
2015,03,19,08,05,5.70
2015,03,19,08,06,5.70
2015,03,19,08,07,5.70
2015,03,19,08,08,5.70
2015,03,19,08,09,5.70
2015,03,19,08,10,5.70
2015,03,19,08,11,5.70
2015,03,19,08,12,5.70
2015,03,19,08,13,5.70
2015,03,19,08,14,5.70
2015,03,19,08,15,5.70
2015,03,19,08,16,5.70
2015,03,19,08,17,5.70
2015,03,19,08,18,5.70
2015,03,19,08,19,5.70
2015,03,19,08,20,5.70
2015,03,19,08,21,5.70
2015,03,19,08,22,5.70
2015,03,19,08,23,5.70
2015,03,19,08,24,5.70
2015,03,19,08,25,5.70
2015,03,19,08,26,5.70
2015,03,19,08,27,5.70
2015,03,19,08,28,5.70
2015,03,19,08,29,5.70
2015,03,19,08,30,5.70
2015,03,19,08,31,5.70
2015,03,19,08,32,5.70
2015,03,19,08,33,5.70
2015,03,19,08,34,5.70
2015,03,19,08,35,5.60
2015,03,19,08,36,5.70
2015,03,19,08,37,5.60
2015,03,19,08,38,5.60
2015,03,19,08,39,5.60
2015,03,19,08,40,5.60
2015,03,19,08,41,5.60
2015,03,19,08,42,5.60
2015,03,19,08,43,5.60
2015,03,19,08,44,5.60
2015,03,19,08,45,5.60
2015,03,19,08,46,5.60
2015,03,19,08,47,5.60
2015,03,19,08,48,5.60
2015,03,19,08,49,5.60
2015,03,19,08,50,5.60
2015,03,19,08,51,5.60
2015,03,19,08,52,5.60
2015,03,19,08,53,5.60
2015,03,19,08,54,5.60
2015,03,19,08,55,5.60
2015,03,19,08,56,5.60
2015,03,19,08,57,5.60
2015,03,19,08,58,5.60
2015,03,19,08,59,5.60
2015,03,19,09,00,5.60
2015,03,19,09,01,5.60
2015,03,19,09,02,5.60
2015,03,19,09,03,5.60
2015,03,19,09,04,5.60
2015,03,19,09,05,5.60
2015,03,19,09,06,5.60
2015,03,19,09,07,5.60
2015,03,19,09,08,5.70
2015,03,19,09,09,5.70
2015,03,19,09,10,5.60
2015,03,19,09,11,5.70
2015,03,19,09,12,5.70
2015,03,19,09,13,5.70
2015,03,19,09,14,5.70
2015,03,19,09,15,5.70
2015,03,19,09,16,5.70
2015,03,19,09,17,5.70
2015,03,19,09,18,5.70
2015,03,19,09,19,5.70
2015,03,19,09,20,5.70
2015,03,19,09,21,5.70
2015,03,19,09,22,5.70
2015,03,19,09,23,5.70
2015,03,19,09,24,5.70
2015,03,19,09,25,5.70
2015,03,19,09,26,5.70
2015,03,19,09,28,5.80
2015,03,19,09,29,5.80
2015,03,19,09,30,5.80
2015,03,19,09,31,5.80
2015,03,19,09,32,5.80
2015,03,19,09,33,5.80
2015,03,19,09,34,5.80
2015,03,19,09,35,5.80
2015,03,19,09,36,5.80
2015,03,19,09,37,5.80
2015,03,19,09,38,5.80
2015,03,19,09,39,5.80
2015,03,19,09,40,5.80
2015,03,19,09,41,5.80
2015,03,19,09,42,5.80
2015,03,19,09,43,5.80
2015,03,19,09,44,5.80
2015,03,19,09,45,5.80
2015,03,19,09,46,5.80
2015,03,19,09,47,5.80
2015,03,19,09,48,5.80
2015,03,19,09,49,5.80
2015,03,19,09,50,5.80
2015,03,19,09,51,5.80
2015,03,19,09,52,5.80
2015,03,19,09,53,5.80
2015,03,19,09,54,5.80
2015,03,19,09,55,5.80
2015,03,19,09,56,5.80
2015,03,19,09,57,5.80
2015,03,19,09,58,5.80
2015,03,19,09,59,5.80
2015,03,19,10,01,5.70
2015,03,19,10,02,5.70
2015,03,19,10,03,5.70
2015,03,19,10,04,5.70
2015,03,19,10,05,5.70
2015,03,19,10,06,5.70
2015,03,19,10,07,5.70
2015,03,19,10,08,5.70
2015,03,19,10,09,5.70
2015,03,19,10,10,5.70
2015,03,19,10,11,5.70
2015,03,19,10,12,5.60
2015,03,19,10,13,5.60
2015,03,19,10,14,5.60
2015,03,19,10,15,5.60
2015,03,19,10,16,5.60
2015,03,19,10,17,5.60
2015,03,19,10,18,5.60
2015,03,19,10,19,5.60
2015,03,19,10,20,5.60
2015,03,19,10,21,5.60
2015,03,19,10,22,5.60
2015,03,19,10,24,5.60
2015,03,19,10,25,5.60
2015,03,19,10,26,5.60
2015,03,19,10,27,5.60
2015,03,19,10,28,5.60
2015,03,19,10,29,5.50
2015,03,19,10,30,5.60
2015,03,19,10,31,5.60
2015,03,19,10,32,5.60
2015,03,19,10,33,5.60
2015,03,19,10,34,5.60
2015,03,19,10,35,5.60
2015,03,19,10,36,5.60
2015,03,19,10,37,5.60
2015,03,19,10,38,5.60
2015,03,19,10,39,5.60
2015,03,19,10,40,5.50
2015,03,19,10,41,5.60
2015,03,19,10,42,5.50
2015,03,19,10,43,5.50
2015,03,19,10,44,5.50
2015,03,19,10,45,5.50
2015,03,19,10,46,5.50
2015,03,19,10,47,5.50
2015,03,19,10,48,5.50
2015,03,19,10,49,5.60
2015,03,19,10,50,5.60
2015,03,19,10,51,5.60
2015,03,19,10,52,5.60
2015,03,19,10,53,5.60
2015,03,19,10,54,5.60
2015,03,19,10,55,5.60
2015,03,19,10,56,5.60
2015,03,19,10,57,5.60
2015,03,19,10,58,5.60
2015,03,19,10,59,5.60
2015,03,19,11,00,5.70
2015,03,19,11,01,5.70
2015,03,19,11,02,5.70
2015,03,19,11,03,5.70
2015,03,19,11,04,5.70
2015,03,19,11,05,5.70
2015,03,19,11,06,5.70
2015,03,19,11,07,5.70
2015,03,19,11,08,5.70
2015,03,19,11,09,5.70
2015,03,19,11,10,5.70
2015,03,19,11,11,5.70
2015,03,19,11,12,5.70
2015,03,19,11,13,5.70
2015,03,19,11,14,5.80
2015,03,19,11,15,5.80
2015,03,19,11,16,5.80
2015,03,19,11,17,5.80
2015,03,19,11,18,5.80
2015,03,19,11,19,5.80
2015,03,19,11,20,5.80
2015,03,19,11,21,5.80
2015,03,19,11,23,5.80
2015,03,19,11,24,5.80
2015,03,19,11,25,5.80
2015,03,19,11,26,5.80
2015,03,19,11,27,5.80
2015,03,19,11,28,5.80
2015,03,19,11,29,5.90
2015,03,19,11,30,5.90
2015,03,19,11,31,5.90
2015,03,19,11,32,5.90
2015,03,19,11,33,5.90
2015,03,19,11,34,5.90
2015,03,19,11,35,5.90
2015,03,19,11,36,5.90
2015,03,19,11,37,5.90
2015,03,19,11,38,5.90
2015,03,19,11,39,5.90
2015,03,19,11,40,5.90
2015,03,19,11,41,5.90
2015,03,19,11,42,5.90
2015,03,19,11,43,5.90
2015,03,19,11,44,6.00
2015,03,19,11,45,6.00
2015,03,19,11,46,6.00
2015,03,19,11,47,6.00
2015,03,19,11,48,6.00
2015,03,19,11,49,6.00
2015,03,19,11,50,6.10
2015,03,19,11,51,6.10
2015,03,19,11,52,6.10
2015,03,19,11,53,6.10
2015,03,19,11,54,6.10
2015,03,19,11,55,6.10
2015,03,19,11,56,6.10
2015,03,19,11,57,6.10
2015,03,19,11,58,6.10
2015,03,19,11,59,6.10
2015,03,19,12,00,6.10
2015,03,19,12,01,6.10
2015,03,19,12,02,6.10
2015,03,19,12,03,6.20
2015,03,19,12,04,6.20
2015,03,19,12,05,6.20
2015,03,19,12,06,6.20
2015,03,19,12,07,6.20
2015,03,19,12,08,6.30
2015,03,19,12,09,6.30
2015,03,19,12,10,6.30
2015,03,19,12,11,6.30
2015,03,19,12,12,6.30
2015,03,19,12,13,6.40
2015,03,19,12,14,6.40
2015,03,19,12,15,6.40
2015,03,19,12,16,6.40
2015,03,19,12,17,6.40
2015,03,19,12,18,6.30
2015,03,19,12,20,6.30
2015,03,19,12,21,6.40
2015,03,19,12,22,6.40
2015,03,19,12,23,6.40
2015,03,19,12,24,6.40
2015,03,19,12,25,6.40
2015,03,19,12,26,6.40
2015,03,19,12,27,6.50
2015,03,19,12,28,6.50
2015,03,19,12,29,6.60
2015,03,19,12,30,6.60
2015,03,19,12,31,6.60
2015,03,19,12,32,6.60
2015,03,19,12,33,6.60
2015,03,19,12,34,6.60
2015,03,19,12,35,6.60
2015,03,19,12,36,6.50
2015,03,19,12,37,6.50
2015,03,19,12,38,6.50
2015,03,19,12,39,6.60
2015,03,19,12,40,6.60
2015,03,19,12,41,6.60
2015,03,19,12,42,6.60
2015,03,19,12,43,6.60
2015,03,19,12,44,6.60
2015,03,19,12,45,6.60
2015,03,19,12,46,6.60
2015,03,19,12,47,6.60
2015,03,19,12,48,6.70
2015,03,19,12,49,6.70
2015,03,19,12,50,6.70
2015,03,19,12,51,6.70
2015,03,19,12,52,6.70
2015,03,19,12,53,6.70
2015,03,19,12,54,6.70
2015,03,19,12,55,6.70
2015,03,19,12,56,6.70
2015,03,19,12,57,6.70
2015,03,19,12,58,6.70
2015,03,19,12,59,6.70
2015,03,19,13,00,6.70
2015,03,19,13,01,6.80
2015,03,19,13,02,6.80
2015,03,19,13,03,6.80
2015,03,19,13,04,6.80
2015,03,19,13,05,6.80
2015,03,19,13,06,6.80
2015,03,19,13,07,6.80
2015,03,19,13,08,6.80
2015,03,19,13,09,6.80
2015,03,19,13,10,6.80
2015,03,19,13,11,6.80
2015,03,19,13,12,6.80
2015,03,19,13,13,6.80
2015,03,19,13,14,6.80
2015,03,19,13,15,6.80
2015,03,19,13,16,6.80
2015,03,19,13,17,6.80
2015,03,19,13,18,6.90
2015,03,19,13,19,6.80
2015,03,19,13,20,6.90
2015,03,19,13,21,6.90
2015,03,19,13,22,6.90
2015,03,19,13,23,6.90
2015,03,19,13,24,7.00
2015,03,19,13,25,7.00
2015,03,19,13,26,7.10
2015,03,19,13,27,7.10
2015,03,19,13,28,7.10
2015,03,19,13,29,7.10
2015,03,19,13,30,7.10
2015,03,19,13,31,7.20
2015,03,19,13,32,7.20
2015,03,19,13,33,7.20
2015,03,19,13,34,7.20
2015,03,19,13,35,7.20
2015,03,19,13,36,7.30
2015,03,19,13,37,7.30
2015,03,19,13,38,7.30
2015,03,19,13,39,7.30
2015,03,19,13,40,7.30
2015,03,19,13,41,7.30
2015,03,19,13,42,7.30
2015,03,19,13,43,7.30
2015,03,19,13,44,7.30
2015,03,19,13,45,7.30
2015,03,19,13,46,7.30
2015,03,19,13,47,7.30
2015,03,19,13,48,7.40
2015,03,19,13,49,7.40
2015,03,19,13,50,7.40
2015,03,19,13,51,7.40
2015,03,19,13,52,7.40
2015,03,19,13,53,7.40
2015,03,19,13,54,7.40
2015,03,19,13,55,7.50
2015,03,19,13,56,7.50
2015,03,19,13,57,7.50
2015,03,19,13,58,7.60
2015,03,19,13,59,7.60
2015,03,19,14,00,7.60
2015,03,19,14,01,7.60
2015,03,19,14,02,7.70
2015,03,19,14,03,7.70
2015,03,19,14,04,7.70
2015,03,19,14,05,7.70
2015,03,19,14,06,7.80
2015,03,19,14,07,7.80
2015,03,19,14,08,7.80
2015,03,19,14,09,7.80
2015,03,19,14,10,7.80
2015,03,19,14,11,7.80
2015,03,19,14,12,7.80
2015,03,19,14,13,7.80
2015,03,19,14,14,7.90
2015,03,19,14,15,7.90
2015,03,19,14,16,7.90
2015,03,19,14,17,7.90
2015,03,19,14,18,7.90
2015,03,19,14,19,7.90
2015,03,19,14,20,8.00
2015,03,19,14,21,8.00
2015,03,19,14,22,8.10
2015,03,19,14,23,8.00
2015,03,19,14,24,8.00
2015,03,19,14,25,8.10
2015,03,19,14,26,8.10
2015,03,19,14,27,8.10
2015,03,19,14,28,8.10
2015,03,19,14,29,8.10
2015,03,19,14,30,8.10
2015,03,19,14,31,8.10
2015,03,19,14,32,8.10
2015,03,19,14,33,8.10
2015,03,19,14,34,8.20
2015,03,19,14,35,8.20
2015,03,19,14,36,8.20
2015,03,19,14,37,8.20
2015,03,19,14,38,8.20
2015,03,19,14,39,8.20
2015,03,19,14,40,8.20
2015,03,19,14,41,8.30
2015,03,19,14,42,8.30
2015,03,19,14,43,8.40
2015,03,19,14,44,8.40
2015,03,19,14,45,8.40
2015,03,19,14,46,8.50
2015,03,19,14,47,8.50
2015,03,19,14,48,8.50
2015,03,19,14,49,8.50
2015,03,19,14,50,8.50
2015,03,19,14,51,8.50
2015,03,19,14,52,8.50
2015,03,19,14,53,8.60
2015,03,19,14,54,8.60
2015,03,19,14,55,8.60
2015,03,19,14,56,8.60
2015,03,19,14,57,8.60
2015,03,19,14,58,8.60
2015,03,19,14,59,8.60
2015,03,19,15,00,8.70
2015,03,19,15,01,8.70
2015,03,19,15,02,8.70
2015,03,19,15,03,8.70
2015,03,19,15,04,8.70
2015,03,19,15,05,8.70
2015,03,19,15,06,8.70
2015,03,19,15,07,8.80
2015,03,19,15,08,8.80
2015,03,19,15,09,8.80
2015,03,19,15,10,8.80
2015,03,19,15,11,8.80
2015,03,19,15,12,8.80
2015,03,19,15,13,8.80
2015,03,19,15,14,8.80
2015,03,19,15,15,8.80
2015,03,19,15,16,8.80
2015,03,19,15,17,8.80
2015,03,19,15,18,8.80
2015,03,19,15,19,8.80
2015,03,19,15,20,8.80
2015,03,19,15,21,8.80
2015,03,19,15,22,8.80
2015,03,19,15,23,8.80
2015,03,19,15,24,8.80
2015,03,19,15,25,8.80
2015,03,19,15,26,8.80
2015,03,19,15,27,8.80
2015,03,19,15,28,8.80
2015,03,19,15,30,8.80
2015,03,19,15,31,8.80
2015,03,19,15,32,8.80
2015,03,19,15,33,8.80
2015,03,19,15,34,8.80
2015,03,19,15,35,8.80
2015,03,19,15,37,8.80
2015,03,19,15,38,8.80
2015,03,19,15,39,8.80
2015,03,19,15,40,8.80
2015,03,19,15,41,8.80
2015,03,19,15,42,8.80
2015,03,19,15,43,8.80
2015,03,19,15,44,8.80
2015,03,19,15,45,8.80
2015,03,19,15,46,8.80
2015,03,19,15,47,8.90
2015,03,19,15,48,8.90
2015,03,19,15,49,8.90
2015,03,19,15,50,8.90
2015,03,19,15,51,8.90
2015,03,19,15,52,8.90
2015,03,19,15,53,8.90
2015,03,19,15,54,8.90
2015,03,19,15,55,8.90
2015,03,19,15,56,8.80
2015,03,19,15,57,8.90
2015,03,19,15,58,8.80
2015,03,19,15,59,8.90
2015,03,19,16,00,8.90
2015,03,19,16,01,8.90
2015,03,19,16,02,8.90
2015,03,19,16,03,8.90
2015,03,19,16,04,8.90
2015,03,19,16,05,8.90
2015,03,19,16,06,8.90
2015,03,19,16,07,8.90
2015,03,19,16,08,8.90
2015,03,19,16,09,8.90
2015,03,19,16,10,8.90
2015,03,19,16,11,8.90
2015,03,19,16,12,8.90
2015,03,19,16,13,8.90
2015,03,19,16,14,9.00
2015,03,19,16,15,9.00
2015,03,19,16,16,9.00
2015,03,19,16,17,8.90
2015,03,19,16,19,8.90
2015,03,19,16,20,8.90
2015,03,19,16,21,8.80
2015,03,19,16,22,8.80
2015,03,19,16,23,8.80
2015,03,19,16,24,8.80
2015,03,19,16,25,8.80
2015,03,19,16,26,8.80
2015,03,19,16,27,8.80
2015,03,19,16,28,8.80
2015,03,19,16,29,8.90
2015,03,19,16,30,8.90
2015,03,19,16,31,8.90
2015,03,19,16,32,8.90
2015,03,19,16,33,8.90
2015,03,19,16,34,8.90
2015,03,19,16,35,9.00
2015,03,19,16,36,9.00
2015,03,19,16,37,9.00
2015,03,19,16,38,9.10
2015,03,19,16,39,9.00
2015,03,19,16,40,9.00
2015,03,19,16,41,8.90
2015,03,19,16,42,8.90
2015,03,19,16,43,8.90
2015,03,19,16,44,8.90
2015,03,19,16,45,8.90
2015,03,19,16,46,8.90
2015,03,19,16,47,8.90
2015,03,19,16,48,8.90
2015,03,19,16,49,9.00
2015,03,19,16,50,9.00
2015,03,19,16,51,9.00
2015,03,19,16,52,9.00
2015,03,19,16,53,9.10
2015,03,19,16,54,9.10
2015,03,19,16,55,9.10
2015,03,19,16,56,9.10
2015,03,19,16,57,9.10
2015,03,19,16,58,9.10
2015,03,19,16,59,9.20
2015,03,19,17,00,9.20
2015,03,19,17,01,9.20
2015,03,19,17,02,9.20
2015,03,19,17,03,9.20
2015,03,19,17,04,9.20
2015,03,19,17,05,9.20
2015,03,19,17,06,9.20
2015,03,19,17,07,9.20
2015,03,19,17,08,9.20
2015,03,19,17,09,9.20
2015,03,19,17,10,9.20
2015,03,19,17,11,9.20
2015,03,19,17,12,9.20
2015,03,19,17,13,9.20
2015,03,19,17,14,9.20
2015,03,19,17,15,9.20
2015,03,19,17,16,9.20
2015,03,19,17,17,9.20
2015,03,19,17,18,9.30
2015,03,19,17,19,9.20
2015,03,19,17,20,9.30
2015,03,19,17,21,9.30
2015,03,19,17,22,9.30
2015,03,19,17,23,9.30
2015,03,19,17,24,9.30
2015,03,19,17,25,9.30
2015,03,19,17,26,9.30
2015,03,19,17,27,9.30
2015,03,19,17,28,9.30
2015,03,19,17,29,9.30
2015,03,19,17,30,9.30
2015,03,19,17,31,9.40
2015,03,19,17,32,9.40
2015,03,19,17,33,9.40
2015,03,19,17,34,9.40
2015,03,19,17,35,9.40
2015,03,19,17,36,9.40
2015,03,19,17,37,9.40
2015,03,19,17,38,9.40
2015,03,19,17,39,9.40
2015,03,19,17,40,9.40
2015,03,19,17,41,9.40
2015,03,19,17,42,9.40
2015,03,19,17,43,9.40
2015,03,19,17,44,9.40
2015,03,19,17,45,9.40
2015,03,19,17,46,9.50
2015,03,19,17,47,9.50
2015,03,19,17,48,9.50
2015,03,19,17,49,9.50
2015,03,19,17,50,9.50
2015,03,19,17,51,9.50
2015,03,19,17,52,9.50
2015,03,19,17,53,9.50
2015,03,19,17,54,9.50
2015,03,19,17,55,9.50
2015,03,19,17,56,9.50
2015,03,19,17,57,9.60
2015,03,19,17,58,9.50
2015,03,19,17,59,9.50
2015,03,19,18,00,9.50
2015,03,19,18,01,9.50
2015,03,19,18,02,9.50
2015,03,19,18,03,9.50
2015,03,19,18,04,9.50
2015,03,19,18,05,9.50
2015,03,19,18,06,9.50
2015,03,19,18,07,9.50
2015,03,19,18,08,9.50
2015,03,19,18,09,9.50
2015,03,19,18,10,9.50
2015,03,19,18,11,9.50
2015,03,19,18,12,9.50
2015,03,19,18,13,9.50
2015,03,19,18,14,9.50
2015,03,19,18,16,9.50
2015,03,19,18,17,9.50
2015,03,19,18,18,9.50
2015,03,19,18,19,9.40
2015,03,19,18,20,9.40
2015,03,19,18,21,9.40
2015,03,19,18,22,9.40
2015,03,19,18,23,9.40
2015,03,19,18,24,9.40
2015,03,19,18,25,9.40
2015,03,19,18,26,9.40